TITAN 3C TRANSTAGE R/B, 7324

Orbit data source: Space-Track

TITAN 3C TRANSTAGE R/B, 7324 is space debris in GEO originally from a launch on Thu, 30 May 1974 UTC launched from the Air Force Eastern Test Range (AFETR). Debris objects in space refer to the collection of defunct objects orbiting the Earth. Examples of debris include non-operational satellites, rocket bodies, and fragments generated from explosions, collisions, or faulty payload assembly.

Loading next visibility...
Identifier
7324, 1974-039C
Orbit
GEO
Last TLE update
14 hours ago
Origin
Manufacturer
Martin Marietta
Mission
Spacecraft
Bus & Motor
TRANSTAGE, Unknown motor
Mass
~1,950 kg wet, ~1,950 kg dry
Launch date (UTC)
1974-05-30 (51 years ago)
Launch vehicle
Unknown
Launch site
Air Force Eastern Test Range (AFETR)
Object type
Payload
Rocket body
Debris
Shape & HBR
Cyl + 2 Nozzle, 4.6 m
Radar Cross Section
14.974 m², Large (>1 m²)

Expand to show TLE details & history

TLE from 14 hours ago
0 TITAN 3C TRANSTAGE R/B
1 07324U 74039C   25182.62152343 -.00000234  00000-0  00000-0 0  9993
2 07324   3.6427 267.5053 0032613  72.3201  77.0168  1.00726762116095
Epoch: 2025-07-01T14:54Z
TLE epoch observation values (Epoch: 2025-07-01T14:54:59.624Z)
Latitude
1.85234°
Longitude
-86.39556°
Altitude
35,628.977 km
Speed
3.082 km/s
True Right ascension
03h 49m 04s
True Declination
1° 51' 02"
Sunlit
Object was in daylight at epoch
Visualization orbit readout
Latitude
0.09892°
Longitude
125.68203°
Altitude
35,612.521 km
Speed
3.083 km/s
Apparent Right ascension
18h 07m 06s
Apparent Declination
-6° 06' 14"
Sunlit
Object is in daylight
Visualization observer readout
Local Sidereal Time
16:41:44
Azimuth
151.83° SSE
Elevation
39.948°
Doppler factor
1
Orbital elements
Apogee altitude
35,797.697 km
Perigee altitude
35,523.495 km
Semi-major axis
42,038.733 km
Eccentricity
0.00326
Inclination
3.6427°
RAAN
267.5053°
Arg. of periapsis
72.3201°
True anomaly
Unknown
Mean anomaly
77.0168°
Eccentric anomaly
Unknown
Mean motion
0.25181 °/min
Orbital period
1,429.66 mins
BSTAR
0
Loading historical data...
7324 neighbors
Loading maneuver chart data...
Loading SW <> Apogee altitude chart data...
Loading historical data...
Loading historical data...
Loading historical data...
Loading historical data...
Loading historical data...
Loading historical data...
Loading historical data...
Other satellites on launch #39 in the year 1974 (1974-05-30 UTC)

TITAN 3C TRANSTAGE R/B Visibility forecast

Observer location: undefined°, undefined°

Span
Click to sort rows by Start time (UTC) header in descending order
Start Az.
Max El. time (UTC)
Max El. Az.
Max El.
End time (UTC)
End Az.
1440 mins2025-07-02 05:00:14.078Z151.839° SSE2025-07-02 10:35:14.078Z148.69° SSE34.397°2025-07-03 05:00:14.078Z149.551° SSE
|